01-10-2022, 00:00:05,    244,    0.7,   10.9,   0.00,   0.00,  998.1,   99.0, -999.0
01-10-2022, 00:00:15,    226,    1.6,   10.9,   0.00,   0.00,  998.1,   99.0, -999.0
01-10-2022, 00:00:25,    238,    0.9,   10.9,   0.00,   0.00,  998.1,   99.0, -999.0
01-10-2022, 00:00:35,    238,    0.4,   10.9,   0.00,   0.00,  998.0,   98.9, -999.0
01-10-2022, 00:00:45,    241,    0.0,   10.9,   0.00,   0.00,  997.9,   98.6, -999.0
01-10-2022, 00:00:55,    245,    1.1,   10.9,   0.00,   0.00,  998.1,   98.9, -999.0
01-10-2022, 00:01:05,    250,    0.8,   10.9,   0.00,   0.00,  998.1,   99.0, -999.0
01-10-2022, 00:01:15,    249,    0.5,   10.9,   0.00,   0.00,  998.1,   99.1, -999.0
01-10-2022, 00:01:25,    249,    0.6,   10.9,   0.00,   0.00,  998.1,   98.9, -999.0
01-10-2022, 00:01:35,    248,    0.8,   10.9,   0.00,   0.00,  998.1,   99.0, -999.0
01-10-2022, 00:01:45,    249,    0.3,   10.8,   0.00,   0.00,  998.0,   98.8, -999.0
01-10-2022, 00:01:55,    249,    0.2,   10.8,   0.00,   0.00,  998.1,   99.0, -999.0
01-10-2022, 00:02:05,    248,    0.0,   10.8,   0.00,   0.00,  998.0,   98.7, -999.0
01-10-2022, 00:02:14,    248,    0.0,   10.8,   0.00,   0.00,  998.0,   98.6, -999.0
01-10-2022, 00:02:25,    248,    0.0,   10.8,   0.00,   0.00,  998.0,   98.6, -999.0
01-10-2022, 00:02:34,    248,    0.0,   10.8,   0.00,   0.00,  998.0,   98.6, -999.0
01-10-2022, 00:02:44,    247,    0.0,   10.7,   0.00,   0.00,  998.0,   98.5, -999.0
01-10-2022, 00:02:54,    242,    0.0,   10.8,   0.00,   0.00,  998.0,   98.7, -999.0
01-10-2022, 00:03:04,    262,    0.0,   10.8,   0.00,   0.00,  998.1,   98.6, -999.0
01-10-2022, 00:03:14,    292,    0.5,   10.9,   0.00,   0.00,  998.2,   99.0, -999.0
01-10-2022, 00:03:24,    287,    0.6,   10.9,   0.00,   0.00,  998.2,   98.8, -999.0
01-10-2022, 00:03:34,    248,    1.5,   10.8,   0.00,   0.00,  998.1,   99.0, -999.0
01-10-2022, 00:03:44,    254,    1.5,   10.8,   0.00,   0.00,  998.1,   99.0, -999.0
01-10-2022, 00:03:54,    242,    1.1,   10.8,   0.00,   0.00,  998.1,   99.0, -999.0
01-10-2022, 00:04:04,    236,    1.4,   10.9,   0.00,   0.00,  998.2,   99.0, -999.0
01-10-2022, 00:04:14,    235,    0.1,   10.9,   0.00,   0.00,  998.2,   98.8, -999.0
01-10-2022, 00:04:24,    235,    0.0,   10.8,   0.00,   0.00,  998.0,   98.5, -999.0
01-10-2022, 00:04:34,    242,    0.4,   10.8,   0.00,   0.00,  998.1,   98.7, -999.0
01-10-2022, 00:04:44,    243,    0.5,   10.9,   0.00,   0.00,  998.2,   99.0, -999.0
01-10-2022, 00:04:54,    243,    0.2,   10.8,   0.00,   0.01,  998.1,   98.8, -999.0
01-10-2022, 00:05:04,    253,    1.2,   10.8,   0.00,   0.00,  998.2,   98.9, -999.0
01-10-2022, 00:05:14,    251,    0.8,   10.9,   0.00,   0.00,  998.2,   99.0, -999.0
01-10-2022, 00:05:23,    252,    0.4,   10.9,   0.00,   0.00,  998.1,   99.0, -999.0
01-10-2022, 00:05:34,    257,    0.8,   10.9,   0.00,   0.00,  998.2,   99.0, -999.0
01-10-2022, 00:05:44,    261,    0.6,   10.9,   0.00,   0.00,  998.1,   99.0, -999.0
01-10-2022, 00:05:53,    262,    0.1,   10.9,   0.00,   0.00,  998.1,   98.8, -999.0
01-10-2022, 00:06:03,    261,    0.0,   10.8,   0.00,   0.00,  998.1,   98.6, -999.0
01-10-2022, 00:06:13,    261,    0.0,   10.7,   0.00,   0.00,  998.0,   98.6, -999.0
01-10-2022, 00:06:23,    261,    0.6,   10.9,   0.00,   0.00,  998.1,   99.0, -999.0
01-10-2022, 00:06:33,    261,    0.0,   10.9,   0.00,   0.00,  998.0,   98.7, -999.0
01-10-2022, 00:06:43,    261,    0.0,   10.8,   0.00,   0.00,  998.0,   98.6, -999.0
01-10-2022, 00:06:53,    261,    0.0,   10.7,   0.00,   0.00,  998.0,   98.6, -999.0
01-10-2022, 00:07:03,    265,    0.4,   10.8,   0.00,   0.00,  998.1,   98.9, -999.0
01-10-2022, 00:07:13,    265,    0.3,   10.9,   0.00,   0.00,  998.1,   98.9, -999.0
01-10-2022, 00:07:23,    265,    0.0,   10.8,   0.00,   0.00,  998.0,   98.6, -999.0
01-10-2022, 00:07:33,    264,    0.2,   10.7,   0.00,   0.00,  998.1,   98.8, -999.0
01-10-2022, 00:07:43,    263,    0.3,   10.8,   0.00,   0.00,  998.1,   98.8, -999.0
01-10-2022, 00:07:53,    264,    0.0,   10.8,   0.00,   0.00,  998.0,   98.6, -999.0
01-10-2022, 00:08:03,    263,    0.0,   10.8,   0.00,   0.00,  998.0,   98.6, -999.0
01-10-2022, 00:08:13,    263,    0.0,   10.7,   0.00,   0.00,  998.0,   98.6, -999.0
01-10-2022, 00:08:23,    261,    0.2,   10.8,   0.00,   0.00,  998.1,   98.6, -999.0
01-10-2022, 00:08:32,    270,    1.3,   10.8,   0.00,   0.00,  998.2,   99.0, -999.0
01-10-2022, 00:08:43,    269,    1.1,   10.9,   0.00,   0.00,  998.2,   99.0, -999.0
01-10-2022, 00:08:53,    269,    0.2,   10.8,   0.00,   0.00,  998.1,   98.8, -999.0
01-10-2022, 00:09:02,    269,    0.0,   10.8,   0.00,   0.00,  998.1,   98.8, -999.0
01-10-2022, 00:09:12,    269,    0.9,   10.8,   0.00,   0.00,  998.2,   98.9, -999.0
01-10-2022, 00:09:23,    269,    0.1,   10.8,   0.00,   0.00,  998.1,   98.7, -999.0
01-10-2022, 00:09:32,    269,    0.0,   10.7,   0.00,   0.00,  998.1,   98.7, -999.0
01-10-2022, 00:09:42,    269,    0.5,   10.8,   0.00,   0.00,  998.2,   98.9, -999.0
01-10-2022, 00:09:52,    269,    0.7,   10.9,   0.00,   0.00,  998.2,   99.0, -999.0
01-10-2022, 00:10:02,    269,    1.0,   10.8,   0.00,   0.00,  998.2,   99.0, -999.0
01-10-2022, 00:10:12,    267,    0.4,   10.9,   0.00,   0.00,  998.2,   99.0, -999.0
01-10-2022, 00:10:22,    267,    0.0,   10.8,   0.00,   0.00,  998.1,   98.7, -999.0
01-10-2022, 00:10:32,    267,    0.0,   10.8,   0.00,   0.00,  998.1,   98.6, -999.0
01-10-2022, 00:10:42,    268,    0.2,   10.7,   0.00,   0.00,  998.2,   98.8, -999.0
01-10-2022, 00:10:52,    267,    0.0,   10.7,   0.00,   0.00,  998.1,   98.6, -999.0
01-10-2022, 00:11:02,    267,    0.0,   10.7,   0.00,   0.00,  998.1,   98.6, -999.0
01-10-2022, 00:11:12,    267,    0.0,   10.7,   0.00,   0.00,  998.1,   98.6, -999.0
01-10-2022, 00:11:22,    246,    0.0,   10.7,   0.00,   0.00,  998.1,   98.7, -999.0
01-10-2022, 00:11:32,    249,    0.6,   10.7,   0.00,   0.00,  998.2,   99.0, -999.0
01-10-2022, 00:11:41,    252,    0.5,   10.8,   0.00,   0.00,  998.2,   99.0, -999.0
01-10-2022, 00:11:52,    252,    0.0,   10.7,   0.00,   0.00,  998.1,   98.6, -999.0
01-10-2022, 00:12:02,    250,    0.0,   10.7,   0.00,   0.00,  998.1,   98.6, -999.0
01-10-2022, 00:12:11,    250,    0.0,   10.7,   0.00,   0.00,  998.1,   98.6, -999.0
01-10-2022, 00:12:21,    250,    0.0,   10.6,   0.00,   0.00,  998.1,   98.6, -999.0
01-10-2022, 00:12:32,    250,    0.0,   10.6,   0.00,   0.00,  998.1,   98.6, -999.0
01-10-2022, 00:12:41,    250,    0.0,   10.7,   0.00,   0.00,  998.1,   98.5, -999.0
01-10-2022, 00:12:51,    250,    0.0,   10.7,   0.00,   0.00,  998.1,   98.6, -999.0
01-10-2022, 00:13:01,    250,    0.0,   10.7,   0.00,   0.00,  998.1,   98.6, -999.0
01-10-2022, 00:13:11,    258,    0.2,   10.7,   0.00,   0.00,  998.2,   98.8, -999.0
01-10-2022, 00:13:21,    258,    0.1,   10.7,   0.00,   0.00,  998.1,   98.8, -999.0
01-10-2022, 00:13:31,    258,    0.0,   10.7,   0.00,   0.00,  998.1,   98.6, -999.0
01-10-2022, 00:13:41,    258,    0.0,   10.6,   0.00,   0.00,  998.1,   98.6, -999.0
01-10-2022, 00:13:51,    258,    0.5,   10.7,   0.00,   0.00,  998.2,   99.0, -999.0
01-10-2022, 00:14:01,    280,    0.7,   10.8,   0.00,   0.00,  998.3,   99.0, -999.0
01-10-2022, 00:14:11,    249,    1.4,   10.8,   0.00,   0.00,  998.2,   99.0, -999.0
01-10-2022, 00:14:21,    250,    1.3,   10.8,   0.00,   0.00,  998.3,   99.0, -999.0
01-10-2022, 00:14:31,    251,    0.1,   10.7,   0.00,   0.00,  998.2,   98.8, -999.0
01-10-2022, 00:14:41,    251,    0.0,   10.7,   0.00,   0.00,  998.1,   98.7, -999.0
01-10-2022, 00:14:51,    250,    0.2,   10.7,   0.00,   0.00,  998.2,   98.9, -999.0
01-10-2022, 00:15:01,    258,    0.4,   10.7,   0.00,   0.00,  998.2,   98.8, -999.0
01-10-2022, 00:15:11,    256,    2.2,   10.7,   0.00,   0.00,  998.3,   98.9, -999.0
01-10-2022, 00:15:20,    257,    1.0,   10.8,   0.00,   0.00,  998.2,   99.0, -999.0
01-10-2022, 00:15:30,    256,    0.9,   10.8,   0.00,   0.00,  998.3,   99.0, -999.0
01-10-2022, 00:15:41,    257,    0.1,   10.7,   0.00,   0.00,  998.1,   98.8, -999.0
01-10-2022, 00:15:50,    257,    0.5,   10.7,   0.00,   0.00,  998.3,   99.0, -999.0
01-10-2022, 00:16:00,    257,    0.9,   10.7,   0.00,   0.00,  998.3,   99.0, -999.0
01-10-2022, 00:16:10,    256,    0.4,   10.7,   0.00,   0.00,  998.2,   98.9, -999.0
01-10-2022, 00:16:20,    256,    0.0,   10.6,   0.00,   0.00,  998.1,   98.6, -999.0
01-10-2022, 00:16:30,    256,    0.0,   10.5,   0.00,   0.00,  998.1,   98.6, -999.0
01-10-2022, 00:16:40,    256,    0.0,   10.6,   0.00,   0.00,  998.1,   98.6, -999.0
01-10-2022, 00:16:50,    247,    0.4,   10.7,   0.00,   0.00,  998.2,   98.9, -999.0
01-10-2022, 00:17:00,    255,    0.8,   10.7,   0.00,   0.00,  998.2,   99.1, -999.0
01-10-2022, 00:17:10,    253,    0.4,   10.7,   0.00,   0.00,  998.2,   98.9, -999.0
01-10-2022, 00:17:20,    253,    0.1,   10.6,   0.00,   0.00,  998.1,   98.7, -999.0
01-10-2022, 00:17:30,    247,    0.7,   10.7,   0.00,   0.00,  998.2,   99.0, -999.0
01-10-2022, 00:17:40,    246,    0.1,   10.6,   0.00,   0.00,  998.1,   98.8, -999.0
01-10-2022, 00:17:50,    247,    0.0,   10.5,   0.00,   0.00,  998.1,   98.6, -999.0
01-10-2022, 00:18:00,    246,    0.2,   10.7,   0.00,   0.00,  998.2,   98.9, -999.0
01-10-2022, 00:18:10,    246,    0.0,   10.6,   0.00,   0.00,  998.1,   98.6, -999.0
01-10-2022, 00:18:20,    254,    1.0,   10.6,   0.00,   0.00,  998.2,   99.0, -999.0
01-10-2022, 00:18:30,    254,    1.2,   10.7,   0.00,   0.00,  998.3,   99.0, -999.0
01-10-2022, 00:18:39,    254,    0.7,   10.7,   0.00,   0.00,  998.3,   99.0, -999.0
01-10-2022, 00:18:50,    254,    0.0,   10.5,   0.00,   0.00,  998.1,   98.6, -999.0
01-10-2022, 00:18:59,    254,    0.0,   10.6,   0.00,   0.00,  998.2,   98.7, -999.0
01-10-2022, 00:19:09,    252,    0.5,   10.6,   0.00,   0.00,  998.2,   98.9, -999.0
01-10-2022, 00:19:19,    282,    0.0,   10.6,   0.00,   0.00,  998.2,   98.7, -999.0
01-10-2022, 00:19:29,    280,    0.2,   10.6,   0.00,   0.00,  998.2,   98.8, -999.0
01-10-2022, 00:19:39,    280,    0.7,   10.7,   0.00,   0.00,  998.3,   99.0, -999.0
01-10-2022, 00:19:49,    280,    0.6,   10.7,   0.00,   0.00,  998.3,   99.0, -999.0
01-10-2022, 00:19:59,    279,    0.2,   10.5,   0.00,   0.00,  998.2,   98.7, -999.0
01-10-2022, 00:20:09,    279,    0.0,   10.6,   0.00,   0.00,  998.1,   98.7, -999.0
01-10-2022, 00:20:19,    279,    0.0,   10.6,   0.00,   0.00,  998.1,   98.6, -999.0
01-10-2022, 00:20:29,    280,    0.2,   10.6,   0.00,   0.00,  998.2,   98.7, -999.0
01-10-2022, 00:20:39,    280,    0.7,   10.6,   0.00,   0.00,  998.3,   99.0, -999.0
01-10-2022, 00:20:49,    244,    1.1,   10.6,   0.00,   0.00,  998.2,   99.0, -999.0
01-10-2022, 00:20:59,    245,    0.3,   10.6,   0.00,   0.00,  998.2,   98.9, -999.0
01-10-2022, 00:21:09,    248,    1.1,   10.6,   0.00,   0.00,  998.3,   99.0, -999.0
01-10-2022, 00:21:19,    241,    1.0,   10.7,   0.00,   0.00,  998.3,   99.0, -999.0
01-10-2022, 00:21:29,    240,    0.5,   10.6,   0.00,   0.00,  998.2,   98.8, -999.0
01-10-2022, 00:21:39,    241,    0.0,   10.5,   0.00,   0.00,  998.1,   98.7, -999.0
01-10-2022, 00:21:49,    243,    0.3,   10.6,   0.00,   0.00,  998.2,   98.9, -999.0
01-10-2022, 00:21:59,    243,    0.0,   10.5,   0.00,   0.00,  998.1,   98.6, -999.0
01-10-2022, 00:22:08,    243,    0.0,   10.5,   0.00,   0.00,  998.1,   98.6, -999.0
01-10-2022, 00:22:18,    243,    0.0,   10.5,   0.00,   0.00,  998.1,   98.6, -999.0
01-10-2022, 00:22:29,    250,    0.1,   10.5,   0.00,   0.00,  998.2,   98.6, -999.0
01-10-2022, 00:22:38,    251,    1.0,   10.5,   0.00,   0.00,  998.3,   99.0, -999.0
01-10-2022, 00:22:48,    251,    0.2,   10.6,   0.00,   0.00,  998.2,   98.9, -999.0
01-10-2022, 00:22:58,    251,    0.0,   10.5,   0.00,   0.00,  998.2,   98.7, -999.0
01-10-2022, 00:23:08,    250,    0.0,   10.5,   0.00,   0.00,  998.2,   98.6, -999.0
01-10-2022, 00:23:18,    251,    0.0,   10.5,   0.00,   0.00,  998.2,   98.7, -999.0
01-10-2022, 00:23:28,    253,    0.0,   10.4,   0.00,   0.00,  998.2,   98.6, -999.0
01-10-2022, 00:23:38,    253,    0.2,   10.5,   0.00,   0.00,  998.3,   98.8, -999.0
01-10-2022, 00:23:48,    253,    0.0,   10.5,   0.00,   0.00,  998.2,   98.6, -999.0
01-10-2022, 00:23:58,    253,    0.0,   10.5,   0.00,   0.00,  998.2,   98.6, -999.0
01-10-2022, 00:24:08,    254,    0.0,   10.5,   0.00,   0.00,  998.2,   98.6, -999.0
01-10-2022, 00:24:18,    264,    0.4,   10.5,   0.00,   0.00,  998.3,   99.0, -999.0
01-10-2022, 00:24:28,    266,    0.4,   10.5,   0.00,   0.00,  998.3,   98.8, -999.0
01-10-2022, 00:24:38,    266,    0.0,   10.4,   0.00,   0.00,  998.2,   98.6, -999.0
01-10-2022, 00:24:48,    265,    0.0,   10.4,   0.00,   0.00,  998.2,   98.6, -999.0
01-10-2022, 00:24:57,    265,    0.0,   10.5,   0.00,   0.00,  998.2,   98.6, -999.0
01-10-2022, 00:25:08,    266,    0.0,   10.4,   0.00,   0.00,  998.2,   98.5, -999.0
01-10-2022, 00:25:18,    266,    0.0,   10.4,   0.00,   0.00,  998.2,   98.6, -999.0
01-10-2022, 00:25:27,    266,    0.0,   10.5,   0.00,   0.00,  998.2,   98.6, -999.0
01-10-2022, 00:25:38,    267,    0.0,   10.5,   0.00,   0.00,  998.3,   98.6, -999.0
01-10-2022, 00:25:47,    275,    1.4,   10.6,   0.00,   0.00,  998.4,   99.0, -999.0
01-10-2022, 00:25:57,    277,    0.5,   10.5,   0.00,   0.00,  998.4,   98.9, -999.0
01-10-2022, 00:26:07,    277,    0.0,   10.5,   0.00,   0.00,  998.3,   98.7, -999.0
01-10-2022, 00:26:17,    277,    0.4,   10.5,   0.00,   0.00,  998.3,   98.8, -999.0
01-10-2022, 00:26:27,    276,    0.4,   10.5,   0.00,   0.00,  998.4,   98.9, -999.0
01-10-2022, 00:26:37,    277,    0.0,   10.5,   0.00,   0.00,  998.2,   98.6, -999.0
01-10-2022, 00:26:47,    277,    0.0,   10.5,   0.00,   0.01,  998.3,   98.6, -999.0
01-10-2022, 00:26:57,    260,    0.5,   10.5,   0.00,   0.00,  998.3,   98.7, -999.0
01-10-2022, 00:27:07,    261,    1.1,   10.5,   0.00,   0.00,  998.4,   99.0, -999.0
01-10-2022, 00:27:17,    260,    1.0,   10.5,   0.00,   0.00,  998.4,   99.0, -999.0
01-10-2022, 00:27:27,    258,    0.6,   10.6,   0.00,   0.00,  998.4,   99.0, -999.0
01-10-2022, 00:27:37,    263,    0.2,   10.5,   0.00,   0.00,  998.4,   98.9, -999.0
01-10-2022, 00:27:47,    229,    0.7,   10.5,   0.00,   0.00,  998.4,   98.9, -999.0
01-10-2022, 00:27:57,    231,    0.4,   10.6,   0.00,   0.00,  998.4,   99.0, -999.0
01-10-2022, 00:28:06,    234,    0.7,   10.6,   0.00,   0.00,  998.4,   98.9, -999.0
01-10-2022, 00:28:17,    238,    1.4,   10.6,   0.00,   0.00,  998.4,   99.0, -999.0
01-10-2022, 00:28:27,    243,    1.1,   10.6,   0.00,   0.00,  998.4,   99.0, -999.0
01-10-2022, 00:28:36,    247,    0.4,   10.5,   0.00,   0.00,  998.3,   98.8, -999.0
01-10-2022, 00:28:47,    265,    0.7,   10.5,   0.00,   0.00,  998.4,   99.0, -999.0
01-10-2022, 00:28:57,    263,    1.0,   10.5,   0.00,   0.00,  998.4,   99.0, -999.0
01-10-2022, 00:29:06,    255,    1.5,   10.6,   0.00,   0.00,  998.4,   99.0, -999.0
01-10-2022, 00:29:16,    255,    0.4,   10.5,   0.00,   0.00,  998.3,   98.9, -999.0
01-10-2022, 00:29:26,    256,    0.1,   10.5,   0.00,   0.00,  998.3,   98.9, -999.0
01-10-2022, 00:29:36,    219,    0.0,   10.5,   0.00,   0.00,  998.2,   98.7, -999.0
01-10-2022, 00:29:46,    223,    0.5,   10.5,   0.00,   0.00,  998.3,   99.0, -999.0
01-10-2022, 00:29:56,    234,    1.1,   10.5,   0.00,   0.00,  998.3,   99.0, -999.0
01-10-2022, 00:30:06,    240,    0.4,   10.6,   0.00,   0.00,  998.4,   99.0, -999.0
01-10-2022, 00:30:16,    244,    0.0,   10.5,   0.00,   0.00,  998.2,   98.7, -999.0
01-10-2022, 00:30:26,    245,    0.0,   10.5,   0.00,   0.00,  998.2,   98.6, -999.0
01-10-2022, 00:30:36,    244,    0.0,   10.5,   0.00,   0.00,  998.2,   98.6, -999.0
01-10-2022, 00:30:47,    244,    0.8,   10.5,   0.00,   0.00,  998.3,   99.0, -999.0
01-10-2022, 00:30:56,    255,    1.0,   10.5,   0.00,   0.00,  998.3,   99.0, -999.0
01-10-2022, 00:31:06,    258,    1.0,   10.5,   0.00,   0.00,  998.3,   99.0, -999.0
01-10-2022, 00:31:15,    258,    0.0,   10.5,   0.00,   0.00,  998.2,   98.7, -999.0
01-10-2022, 00:31:26,    247,    1.1,   10.5,   0.00,   0.00,  998.3,   98.9, -999.0
01-10-2022, 00:31:36,    249,    0.5,   10.5,   0.00,   0.00,  998.2,   98.8, -999.0
01-10-2022, 00:31:45,    249,    0.0,   10.4,   0.00,   0.00,  998.2,   98.6, -999.0
01-10-2022, 00:31:56,    249,    0.0,   10.4,   0.00,   0.00,  998.1,   98.6, -999.0
01-10-2022, 00:32:06,    249,    0.1,   10.4,   0.00,   0.00,  998.2,   98.7, -999.0
01-10-2022, 00:32:15,    249,    0.1,   10.5,   0.00,   0.00,  998.2,   98.8, -999.0
01-10-2022, 00:32:25,    249,    0.0,   10.5,   0.00,   0.00,  998.2,   98.7, -999.0
01-10-2022, 00:32:36,    235,    0.9,   10.5,   0.00,   0.00,  998.3,   99.0, -999.0
01-10-2022, 00:32:45,    249,    1.5,   10.5,   0.00,   0.00,  998.3,   99.0, -999.0
01-10-2022, 00:32:55,    254,    0.7,   10.6,   0.00,   0.00,  998.3,   99.0, -999.0
01-10-2022, 00:33:05,    255,    0.1,   10.4,   0.00,   0.00,  998.2,   98.7, -999.0
01-10-2022, 00:33:15,    255,    0.0,   10.4,   0.00,   0.00,  998.2,   98.5, -999.0
01-10-2022, 00:33:25,    254,    0.7,   10.4,   0.00,   0.00,  998.3,   98.9, -999.0
01-10-2022, 00:33:35,    255,    0.5,   10.5,   0.00,   0.00,  998.3,   99.0, -999.0
01-10-2022, 00:33:45,    255,    0.8,   10.6,   0.00,   0.00,  998.3,   99.0, -999.0
01-10-2022, 00:33:55,    255,    0.3,   10.5,   0.00,   0.00,  998.3,   98.9, -999.0
01-10-2022, 00:34:05,    255,    0.0,   10.4,   0.00,   0.00,  998.2,   98.5, -999.0
01-10-2022, 00:34:15,    255,    0.0,   10.5,   0.00,   0.00,  998.1,   98.6, -999.0
01-10-2022, 00:34:25,    258,    0.2,   10.5,   0.00,   0.00,  998.2,   98.7, -999.0
01-10-2022, 00:34:35,    262,    0.2,   10.5,   0.00,   0.00,  998.2,   98.9, -999.0
01-10-2022, 00:34:45,    257,    0.3,   10.5,   0.00,   0.00,  998.2,   98.9, -999.0
01-10-2022, 00:34:54,    257,    0.3,   10.5,   0.00,   0.00,  998.2,   98.8, -999.0
01-10-2022, 00:35:05,    257,    0.0,   10.4,   0.00,   0.00,  998.2,   98.7, -999.0
01-10-2022, 00:35:15,    257,    0.3,   10.5,   0.00,   0.00,  998.3,   99.0, -999.0
01-10-2022, 00:35:24,    257,    0.2,   10.4,   0.00,   0.00,  998.2,   98.8, -999.0
01-10-2022, 00:35:34,    263,    0.1,   10.4,   0.00,   0.00,  998.2,   98.8, -999.0
01-10-2022, 00:35:45,    263,    0.1,   10.4,   0.00,   0.00,  998.2,   98.8, -999.0
01-10-2022, 00:35:54,    263,    0.0,   10.5,   0.00,   0.00,  998.2,   98.8, -999.0
01-10-2022, 00:36:04,    263,    0.0,   10.4,   0.00,   0.00,  998.1,   98.6, -999.0
01-10-2022, 00:36:14,    263,    0.2,   10.3,   0.00,   0.00,  998.2,   98.7, -999.0
01-10-2022, 00:36:24,    263,    0.9,   10.4,   0.00,   0.00,  998.3,   99.0, -999.0
01-10-2022, 00:36:34,    263,    0.2,   10.4,   0.00,   0.00,  998.2,   98.8, -999.0
01-10-2022, 00:36:44,    262,    0.7,   10.4,   0.00,   0.00,  998.2,   98.9, -999.0
01-10-2022, 00:36:54,    243,    0.9,   10.5,   0.00,   0.00,  998.3,   99.0, -999.0
01-10-2022, 00:37:04,    245,    0.1,   10.4,   0.00,   0.00,  998.2,   98.7, -999.0
01-10-2022, 00:37:14,    248,    1.2,   10.5,   0.00,   0.00,  998.3,   99.0, -999.0
01-10-2022, 00:37:24,    251,    1.5,   10.4,   0.00,   0.00,  998.3,   98.9, -999.0
01-10-2022, 00:37:34,    254,    1.9,   10.4,   0.00,   0.00,  998.3,   99.0, -999.0
01-10-2022, 00:37:44,    267,    2.6,   10.5,   0.00,   0.00,  998.2,   99.0, -999.0
01-10-2022, 00:37:54,    268,    1.0,   10.5,   0.00,   0.00,  998.3,   99.0, -999.0
01-10-2022, 00:38:04,    268,    0.1,   10.5,   0.00,   0.00,  998.2,   98.8, -999.0
01-10-2022, 00:38:14,    268,    0.0,   10.3,   0.00,   0.00,  998.2,   98.6, -999.0
01-10-2022, 00:38:24,    268,    0.0,   10.4,   0.00,   0.00,  998.1,   98.5, -999.0
01-10-2022, 00:38:33,    268,    0.0,   10.3,   0.00,   0.00,  998.2,   98.6, -999.0
01-10-2022, 00:38:43,    277,    0.0,   10.4,   0.00,   0.00,  998.2,   98.6, -999.0
01-10-2022, 00:38:54,    277,    0.0,   10.3,   0.00,   0.00,  998.1,   98.6, -999.0
01-10-2022, 00:39:03,    279,    0.0,   10.3,   0.00,   0.00,  998.2,   98.7, -999.0
01-10-2022, 00:39:13,    279,    0.2,   10.3,   0.00,   0.00,  998.3,   98.9, -999.0
01-10-2022, 00:39:23,    278,    0.2,   10.4,   0.00,   0.00,  998.2,   98.9, -999.0
01-10-2022, 00:39:33,    276,    0.2,   10.3,   0.00,   0.00,  998.2,   98.7, -999.0
01-10-2022, 00:39:43,    275,    0.2,   10.4,   0.00,   0.00,  998.3,   98.9, -999.0
01-10-2022, 00:39:53,    275,    0.0,   10.3,   0.00,   0.00,  998.2,   98.7, -999.0
01-10-2022, 00:40:03,    275,    0.0,   10.3,   0.00,   0.00,  998.2,   98.6, -999.0
01-10-2022, 00:40:13,    275,    0.0,   10.3,   0.00,   0.00,  998.3,   98.7, -999.0
01-10-2022, 00:40:23,    275,    0.0,   10.3,   0.00,   0.00,  998.3,   98.8, -999.0
01-10-2022, 00:40:33,    275,    0.0,   10.3,   0.00,   0.00,  998.2,   98.6, -999.0
01-10-2022, 00:40:43,    275,    0.2,   10.4,   0.00,   0.00,  998.4,   98.8, -999.0
01-10-2022, 00:40:53,    273,    1.2,   10.4,   0.00,   0.00,  998.4,   98.9, -999.0
01-10-2022, 00:41:03,    246,    2.1,   10.5,   0.00,   0.00,  998.4,   99.0, -999.0
01-10-2022, 00:41:13,    242,    1.9,   10.5,   0.00,   0.00,  998.4,   99.0, -999.0
01-10-2022, 00:41:23,    246,    0.9,   10.5,   0.00,   0.00,  998.4,   99.0, -999.0
01-10-2022, 00:41:33,    252,    0.5,   10.5,   0.00,   0.00,  998.4,   99.0, -999.0
01-10-2022, 00:41:42,    253,    0.3,   10.4,   0.00,   0.00,  998.4,   98.9, -999.0
01-10-2022, 00:41:52,    252,    0.0,   10.3,   0.00,   0.00,  998.3,   98.6, -999.0
01-10-2022, 00:42:03,    247,    1.0,   10.4,   0.00,   0.00,  998.4,   99.0, -999.0
01-10-2022, 00:42:12,    261,    1.0,   10.5,   0.00,   0.00,  998.4,   99.0, -999.0
01-10-2022, 00:42:22,    262,    0.1,   10.4,   0.00,   0.00,  998.3,   98.7, -999.0
01-10-2022, 00:42:32,    261,    0.0,   10.4,   0.00,   0.00,  998.3,   98.7, -999.0
01-10-2022, 00:42:42,    261,    0.5,   10.4,   0.00,   0.00,  998.4,   98.9, -999.0
01-10-2022, 00:42:52,    251,    0.4,   10.4,   0.00,   0.00,  998.4,   98.9, -999.0
01-10-2022, 00:43:02,    253,    0.8,   10.4,   0.00,   0.00,  998.4,   99.0, -999.0
01-10-2022, 00:43:12,    253,    0.5,   10.4,   0.00,   0.00,  998.4,   98.8, -999.0
01-10-2022, 00:43:22,    253,    0.0,   10.3,   0.00,   0.00,  998.3,   98.6, -999.0
01-10-2022, 00:43:32,    253,    0.0,   10.3,   0.00,   0.00,  998.3,   98.6, -999.0
01-10-2022, 00:43:42,    253,    0.0,   10.4,   0.00,   0.00,  998.3,   98.5, -999.0
01-10-2022, 00:43:52,    258,    0.0,   10.3,   0.00,   0.00,  998.3,   98.6, -999.0
01-10-2022, 00:44:02,    258,    0.0,   10.4,   0.00,   0.00,  998.3,   98.7, -999.0
01-10-2022, 00:44:12,    226,    0.2,   10.4,   0.00,   0.00,  998.4,   98.8, -999.0
01-10-2022, 00:44:22,    228,    0.2,   10.4,   0.00,   0.00,  998.3,   98.8, -999.0
01-10-2022, 00:44:32,    228,    0.0,   10.4,   0.00,   0.00,  998.3,   98.6, -999.0
01-10-2022, 00:44:42,    224,    0.3,   10.4,   0.00,   0.00,  998.4,   98.8, -999.0
01-10-2022, 00:44:52,    223,    0.1,   10.4,   0.00,   0.00,  998.3,   98.7, -999.0
01-10-2022, 00:45:01,    236,    0.3,   10.4,   0.00,   0.00,  998.4,   98.9, -999.0
01-10-2022, 00:45:12,    236,    0.2,   10.4,   0.00,   0.00,  998.4,   98.8, -999.0
01-10-2022, 00:45:21,    237,    0.0,   10.4,   0.00,   0.00,  998.3,   98.6, -999.0
01-10-2022, 00:45:31,    268,    0.5,   10.5,   0.00,   0.00,  998.4,   99.0, -999.0
01-10-2022, 00:45:41,    268,    0.5,   10.5,   0.00,   0.00,  998.4,   98.9, -999.0
01-10-2022, 00:45:51,    268,    0.3,   10.4,   0.00,   0.00,  998.4,   98.9, -999.0
01-10-2022, 00:46:01,    268,    0.1,   10.4,   0.00,   0.00,  998.4,   98.9, -999.0
01-10-2022, 00:46:11,    269,    0.0,   10.3,   0.00,   0.00,  998.3,   98.6, -999.0
01-10-2022, 00:46:21,    268,    0.0,   10.4,   0.00,   0.00,  998.3,   98.7, -999.0
01-10-2022, 00:46:31,    268,    0.0,   10.3,   0.00,   0.00,  998.3,   98.6, -999.0
01-10-2022, 00:46:41,    268,    0.0,   10.3,   0.00,   0.00,  998.3,   98.7, -999.0